When you browse on this site, cookies collect data to enhance your experience and personalize the content and advertising you see.
Visit our Privacy Policy to learn more. By continuing to use the site, you agree to this use of cookies and data.
  • în România
  • Lista ţărilor
  • Pe 7 zile
  • Temperatura apei
  • Meteo pe hartă
  • Widget-uri
  • user-avatar
    Intrare

    Meteo pe oră la Karbala

    Astăzi, 22 August, Joi

    Timp Temperatura Precipitaţii Vânt Presiune Umiditate
    00:00 +37°C° 0 mm 5 m/s 749 mmHg 20%
    01:00 +36°C° 0 mm 5 m/s 749 mmHg 23%
    02:00 +35°C° 0 mm 5 m/s 749 mmHg 25%
    03:00 +33°C° 0 mm 5 m/s 749 mmHg 27%
    04:00 +33°C° 0 mm 5 m/s 749 mmHg 27%
    05:00 +32°C° 0 mm 5 m/s 749 mmHg 27%
    06:00 +32°C° 0 mm 5 m/s 750 mmHg 27%
    07:00 +34°C° 0 mm 6 m/s 750 mmHg 25%
    08:00 +36°C° 0 mm 7 m/s 750 mmHg 24%
    09:00 +39°C° 0 mm 8 m/s 750 mmHg 22%
    10:00 +41°C° 0 mm 8 m/s 750 mmHg 19%
    11:00 +44°C° 0 mm 8 m/s 750 mmHg 17%
    12:00 +46°C° 0 mm 8 m/s 749 mmHg 14%
    13:00 +46°C° 0 mm 8 m/s 749 mmHg 13%
    14:00 +46°C° 0 mm 8 m/s 749 mmHg 13%
    15:00 +48°C° 0 mm 8 m/s 748 mmHg 12%
    16:00 +46°C° 0 mm 8 m/s 748 mmHg 13%
    17:00 +45°C° 0 mm 7 m/s 748 mmHg 13%
    18:00 +44°C° 0 mm 6 m/s 748 mmHg 14%
    19:00 +42°C° 0 mm 6 m/s 748 mmHg 16%
    20:00 +40°C° 0 mm 5 m/s 748 mmHg 18%
    21:00 +37°C° 0 mm 5 m/s 748 mmHg 20%
    22:00 +36°C° 0 mm 5 m/s 748 mmHg 20%
    23:00 +36°C° 0 mm 5 m/s 748 mmHg 21%

    Mâine, 23 August, Vineri

    Timp Temperatura Precipitaţii Vânt Presiune Umiditate
    00:00 +35°C° 0 mm 4 m/s 748 mmHg 21%
    01:00 +34°C° 0 mm 4 m/s 748 mmHg 23%
    02:00 +33°C° 0 mm 4 m/s 748 mmHg 26%
    03:00 +33°C° 0 mm 3 m/s 748 mmHg 28%
    04:00 +32°C° 0 mm 4 m/s 748 mmHg 28%
    05:00 +32°C° 0 mm 4 m/s 748 mmHg 29%
    06:00 +32°C° 0 mm 4 m/s 748 mmHg 30%
    07:00 +35°C° 0 mm 4 m/s 749 mmHg 26%
    08:00 +37°C° 0 mm 4 m/s 749 mmHg 23%
    09:00 +40°C° 0 mm 5 m/s 749 mmHg 20%
    10:00 +42°C° 0 mm 5 m/s 749 mmHg 18%
    11:00 +45°C° 0 mm 5 m/s 749 mmHg 16%
    12:00 +46°C° 0 mm 5 m/s 749 mmHg 14%
    13:00 +47°C° 0 mm 5 m/s 749 mmHg 13%
    14:00 +48°C° 0 mm 5 m/s 748 mmHg 12%
    15:00 +48°C° 0 mm 5 m/s 748 mmHg 11%
    16:00 +47°C° 0 mm 5 m/s 748 mmHg 11%
    17:00 +45°C° 0 mm 4 m/s 748 mmHg 12%
    18:00 +44°C° 0 mm 4 m/s 748 mmHg 13%
    19:00 +43°C° 0 mm 4 m/s 748 mmHg 14%
    20:00 +41°C° 0 mm 4 m/s 748 mmHg 16%
    21:00 +38°C° 0 mm 4 m/s 749 mmHg 17%
    22:00 +38°C° 0 mm 3 m/s 749 mmHg 18%
    23:00 +37°C° 0 mm 3 m/s 748 mmHg 19%

    Poimâine, 24 August, Sâmbătă

    Timp Temperatura Precipitaţii Vânt Presiune Umiditate
    00:00 +36°C° 0 mm 2 m/s 748 mmHg 20%
    01:00 +36°C° 0 mm 3 m/s 748 mmHg 20%
    02:00 +36°C° 0 mm 4 m/s 748 mmHg 20%
    03:00 +36°C° 0 mm 4 m/s 748 mmHg 21%
    04:00 +35°C° 0 mm 4 m/s 748 mmHg 20%
    05:00 +34°C° 0 mm 3 m/s 749 mmHg 20%
    06:00 +34°C° 0 mm 3 m/s 749 mmHg 20%
    07:00 +37°C° 0 mm 3 m/s 750 mmHg 17%
    08:00 +39°C° 0 mm 3 m/s 750 mmHg 15%
    09:00 +42°C° 0 mm 2 m/s 750 mmHg 13%
    10:00 +44°C° 0 mm 3 m/s 750 mmHg 12%
    11:00 +46°C° 0 mm 3 m/s 750 mmHg 11%
    12:00 +48°C° 0 mm 4 m/s 750 mmHg 10%
    13:00 +49°C° 0 mm 4 m/s 749 mmHg 9%
    14:00 +50°C° 0 mm 5 m/s 749 mmHg 9%
    15:00 +52°C° 0 mm 5 m/s 748 mmHg 8%
    16:00 +49°C° 0 mm 4 m/s 748 mmHg 9%
    17:00 +48°C° 0 mm 4 m/s 748 mmHg 10%
    18:00 +47°C° 0 mm 4 m/s 748 mmHg 11%
    19:00 +44°C° 0 mm 4 m/s 748 mmHg 12%
    20:00 +43°C° 0 mm 3 m/s 748 mmHg 13%
    21:00 +42°C° 0 mm 3 m/s 749 mmHg 14%
    22:00 +40°C° 0 mm 3 m/s 749 mmHg 14%
    23:00 +39°C° 0 mm 3 m/s 748 mmHg 14%

    25 August, Duminică

    Timp Temperatura Precipitaţii Vânt Presiune Umiditate
    00:00 +39°C° 0 mm 3 m/s 748 mmHg 14%
    01:00 +38°C° 0 mm 3 m/s 748 mmHg 15%
    02:00 +37°C° 0 mm 2 m/s 748 mmHg 16%
    03:00 +37°C° 0 mm 2 m/s 748 mmHg 16%
    04:00 +36°C° 0 mm 2 m/s 748 mmHg 17%
    05:00 +36°C° 0 mm 2 m/s 748 mmHg 17%
    06:00 +36°C° 0 mm 3 m/s 748 mmHg 17%
    07:00 +39°C° 0 mm 3 m/s 749 mmHg 16%
    08:00 +42°C° 0 mm 3 m/s 749 mmHg 14%
    09:00 +45°C° 0 mm 3 m/s 749 mmHg 12%
    10:00 +47°C° 0 mm 4 m/s 749 mmHg 11%
    11:00 +49°C° 0 mm 4 m/s 749 mmHg 10%
    12:00 +50°C° 0 mm 4 m/s 749 mmHg 9%
    13:00 +51°C° 0 mm 4 m/s 748 mmHg 9%
    14:00 +51°C° 0 mm 4 m/s 748 mmHg 8%
    15:00 +52°C° 0 mm 4 m/s 747 mmHg 8%
    16:00 +50°C° 0 mm 3 m/s 747 mmHg 8%
    17:00 +48°C° 0 mm 2 m/s 747 mmHg 9%
    18:00 +46°C° 0 mm 1 m/s 746 mmHg 10%
    19:00 +44°C° 0 mm 1 m/s 747 mmHg 11%
    20:00 +42°C° 0 mm 1 m/s 747 mmHg 12%
    21:00 +40°C° 0 mm 1 m/s 747 mmHg 13%
    22:00 +40°C° 0 mm 2 m/s 747 mmHg 13%
    23:00 +40°C° 0 mm 2 m/s 747 mmHg 14%

    26 August, Luni

    Timp Temperatura Precipitaţii Vânt Presiune Umiditate
    00:00 +40°C° 0 mm 3 m/s 747 mmHg 14%
    01:00 +39°C° 0 mm 3 m/s 747 mmHg 15%
    02:00 +40°C° 0 mm 4 m/s 747 mmHg 16%
    03:00 +40°C° 0 mm 4 m/s 746 mmHg 17%
    04:00 +39°C° 0 mm 5 m/s 747 mmHg 19%
    05:00 +37°C° 0 mm 5 m/s 747 mmHg 21%
    06:00 +36°C° 0 mm 6 m/s 747 mmHg 23%
    07:00 +39°C° 0 mm 6 m/s 748 mmHg 21%
    08:00 +42°C° 0 mm 6 m/s 748 mmHg 18%
    09:00 +45°C° 0 mm 7 m/s 748 mmHg 15%
    10:00 +47°C° 0 mm 6 m/s 748 mmHg 13%
    11:00 +49°C° 0 mm 6 m/s 748 mmHg 11%
    12:00 +52°C° 0 mm 5 m/s 748 mmHg 9%
    13:00 +53°C° 0 mm 5 m/s 747 mmHg 8%
    14:00 +54°C° 0 mm 5 m/s 747 mmHg 8%
    15:00 +53°C° 0 mm 4 m/s 746 mmHg 7%
    16:00 +52°C° 0 mm 4 m/s 746 mmHg 8%
    17:00 +51°C° 0 mm 4 m/s 746 mmHg 8%
    18:00 +49°C° 0 mm 4 m/s 746 mmHg 9%
    19:00 +48°C° 0 mm 5 m/s 746 mmHg 11%
    20:00 +46°C° 0 mm 5 m/s 747 mmHg 12%
    21:00 +45°C° 0 mm 6 m/s 747 mmHg 14%
    22:00 +44°C° 0 mm 6 m/s 747 mmHg 16%
    23:00 +43°C° 0 mm 7 m/s 747 mmHg 17%

    27 August, Marţi

    Timp Temperatura Precipitaţii Vânt Presiune Umiditate
    00:00 +41°C° 0 mm 7 m/s 747 mmHg 19%
    01:00 +41°C° 0 mm 7 m/s 747 mmHg 19%
    02:00 +40°C° 0 mm 7 m/s 747 mmHg 19%
    03:00 +40°C° 0 mm 7 m/s 747 mmHg 19%
    04:00 +39°C° 0 mm 6 m/s 748 mmHg 19%
    05:00 +39°C° 0 mm 5 m/s 748 mmHg 20%
    06:00 +37°C° 0 mm 4 m/s 748 mmHg 20%
    07:00 +40°C° 0 mm 4 m/s 748 mmHg 18%
    08:00 +42°C° 0 mm 5 m/s 748 mmHg 16%
    09:00 +45°C° 0 mm 5 m/s 749 mmHg 14%
    10:00 +47°C° 0 mm 5 m/s 749 mmHg 12%
    11:00 +49°C° 0 mm 6 m/s 748 mmHg 11%
    12:00 +52°C° 0 mm 6 m/s 748 mmHg 10%
    13:00 +52°C° 0 mm 6 m/s 748 mmHg 9%
    14:00 +53°C° 0 mm 7 m/s 747 mmHg 9%
    15:00 +53°C° 0 mm 7 m/s 747 mmHg 8%
    16:00 +52°C° 0 mm 6 m/s 747 mmHg 9%
    17:00 +51°C° 0 mm 6 m/s 747 mmHg 10%
    18:00 +48°C° 0 mm 5 m/s 747 mmHg 11%
    19:00 +47°C° 0 mm 5 m/s 747 mmHg 12%
    20:00 +45°C° 0 mm 5 m/s 748 mmHg 13%
    21:00 +43°C° 0 mm 5 m/s 748 mmHg 14%
    22:00 +42°C° 0 mm 5 m/s 748 mmHg 15%
    23:00 +41°C° 0 mm 5 m/s 748 mmHg 16%
    Arată mai mult